Flag for Germany Weather past 2 weeks in Vechta, Lower Saxony, Germany

Now
23 °F

Clear.


Feels Like: 14 °F
Forecast: 26 / 37 °F
Wind: 8 mph from Northeast

Location: Bremen Airport

Current Time: Dec 28, 2014 at 7:08:05 AM

Latest Report: Dec 28, 2014 at 6:20 AM


Visibility: 10 mi

Pressure: 30.15 "Hg

Humidity: 93%

Dew point: 21 °F

Location of VechtaLocation

Historic Weather in Vechta — Graph

°F

Vechta temperature yesterday

Maximum temperature yesterday: 34 °F (at 2:50 AM)
Minimum temperature yesterday: 25 °F (at 11:50 PM)
Average temperature yesterday: 31 °F

Past Weeks' High & Low Weather Summary

 TemperatureHumidityPressure
High54 °F (Dec 18, 3:50 PM)100% (Dec 13, 5:20 PM)30.36 "Hg (Dec 13, 5:20 PM)
Low23 °F (Dec 28, 3:20 AM)61% (Dec 25, 1:20 PM)29.50 "Hg (Dec 17, 1:20 PM)
Average42 °F89%29.88 "Hg
* Reported Dec 13 5:20 AM — Dec 28 5:50 AM, Vechta, Weather by CustomWeather, © 2014

Note: Actual official high and low records may vary slightly from our data, if they occured in-between our weather recording intervals... More about our weather records

Advertising

Vechta weather history for previous 24 hours

 ConditionsComfort  
Time TempWeatherWind HumidityBarometerVisibility
5:50 AM
Dec 28
23 °FClear.7 mph86%30.12 "Hg10 mi
5:20 AM23 °FClear.8 mph93%30.12 "Hg10 mi
4:20 AM23 °FClear.8 mph93%30.09 "Hg10 mi
3:50 AM23 °FClear.9 mph93%30.07 "Hg10 mi
3:20 AM23 °FClear.9 mph93%30.07 "Hg10 mi
2:50 AM25 °FPassing clouds.10 mph86%30.04 "HgN/A
2:20 AM25 °FPassing clouds.12 mph86%30.04 "HgN/A
1:50 AM25 °FPassing clouds.13 mph86%30.01 "HgN/A
1:20 AM27 °FPassing clouds.15 mph80%29.98 "HgN/A
12:50 AM27 °FPassing clouds.13 mph80%29.98 "HgN/A
12:20 AM27 °FPassing clouds.14 mph80%29.95 "HgN/A
11:50 PM
Dec 27
25 °FPassing clouds.12 mph86%29.95 "HgN/A
11:20 PM27 °FPassing clouds.10 mph80%29.92 "HgN/A
10:50 PM27 °FPartly cloudy.15 mph80%29.92 "HgN/A
10:20 PM27 °FPassing clouds.16 mph80%29.89 "HgN/A
9:50 PM27 °FClear.17 mph86%29.89 "Hg10 mi
9:20 PM27 °FClear.20 mph80%29.86 "Hg10 mi
8:50 PM28 °FClear.16 mph74%29.86 "Hg10 mi
8:20 PM28 °FClear.20 mph69%29.83 "Hg10 mi
7:50 PM28 °FClear.16 mph69%29.80 "Hg10 mi
7:20 PM28 °FClear.16 mph69%29.80 "Hg10 mi
6:50 PM30 °FClear.16 mph69%29.80 "Hg10 mi
6:20 PM30 °FClear.14 mph69%29.77 "Hg10 mi
5:50 PM30 °FClear.16 mph75%29.77 "Hg10 mi
5:20 PM30 °FClear.15 mph75%29.74 "Hg10 mi
4:50 PM30 °FClear.15 mph80%29.74 "Hg10 mi
4:20 PM30 °FClear.14 mph80%29.74 "Hg10 mi
3:50 PM32 °FSunny.15 mph69%29.74 "Hg10 mi
3:20 PM32 °FSunny.17 mph75%29.71 "Hg10 mi
2:50 PM34 °FSunny.17 mph70%29.71 "Hg10 mi
2:20 PM34 °FSunny.18 mph75%29.71 "Hg10 mi
1:50 PM34 °FSunny.16 mph75%29.71 "Hg10 mi
1:20 PM34 °FSunny.16 mph75%29.71 "Hg10 mi
12:50 PM34 °FSunny.15 mph75%29.71 "Hg10 mi
12:20 PM32 °FSunny.15 mph80%29.71 "Hg10 mi
11:50 AM32 °FSunny.12 mph87%29.71 "Hg10 mi
11:20 AM32 °FSunny.12 mph87%29.74 "Hg10 mi
10:50 AM32 °FPassing clouds.13 mph80%29.74 "HgN/A
10:20 AM32 °FSunny.12 mph80%29.74 "Hg10 mi
9:50 AM32 °FSunny.9 mph80%29.74 "Hg10 mi
9:20 AM32 °FSunny.9 mph80%29.74 "Hg10 mi
8:50 AM30 °FSunny.13 mph93%29.77 "Hg10 mi
8:20 AM32 °FClear.13 mph87%29.77 "Hg10 mi
7:50 AM30 °FPassing clouds.10 mph93%29.77 "HgN/A
7:20 AM30 °FPassing clouds.13 mph93%29.80 "HgN/A
Weather by CustomWeather, © 2014

See weather overviewHow to use our weather pages